Flag for Russia Weather past 2 weeks in Samara, Russia

Now
79 °F

Broken clouds.


Feels Like: 79 °F
Forecast: 55 / 81 °F
Wind: 8 mph from North

Location: Samara

Current Time: Aug 1, 2014 at 3:35:43 PM

Latest Report: Aug 1, 2014 at 3:00 PM


Visibility: N/A

Pressure: 30.04 "Hg

Humidity: 32%

Dew point: 46 °F

Location of SamaraLocation

Historic Weather in Samara — Graph

°F

Samara temperature yesterday

Maximum temperature yesterday: 86 °F (at 1:00 PM)
Minimum temperature yesterday: 66 °F (at 11:30 PM)
Average temperature yesterday: 74 °F

Past Weeks' High & Low Weather Summary

 TemperatureHumidityPressure
High88 °F (Jul 30, 2:30 PM)88% (Aug 1, 5:30 AM)30.15 "Hg (Aug 1, 5:30 AM)
Low46 °F (Jul 20, 4:00 AM)22% (Jul 17, 6:00 PM)29.71 "Hg (Jul 20, 6:00 PM)
Average64 °F49%29.93 "Hg
* Reported Jul 17 2:00 PM — Aug 1 2:30 PM, Samara, Weather by CustomWeather, © 2014

Note: Actual official high and low records may vary slightly from our data, if they occured in-between our weather recording intervals... More about our weather records

Advertising

Samara weather history for previous 24 hours

 ConditionsComfort  
Time TempWeatherWind HumidityBarometerVisibility
2:30 PM
Aug 1
77 °FBroken clouds.10 mph34%30.04 "HgN/A
2:00 PM75 °FBroken clouds.13 mph36%30.04 "HgN/A
1:30 PM77 °FBroken clouds.10 mph36%30.04 "HgN/A
1:00 PM75 °FBroken clouds.10 mph41%30.07 "HgN/A
12:30 PM77 °FBroken clouds.13 mph34%30.07 "HgN/A
12:00 PM77 °FBroken clouds.13 mph39%30.07 "HgN/A
11:30 AM75 °FBroken clouds.13 mph41%30.07 "HgN/A
11:00 AM73 °FBroken clouds.10 mph41%30.07 "HgN/A
10:30 AM73 °FBroken clouds.10 mph44%30.07 "HgN/A
10:00 AM72 °FBroken clouds.8 mph50%30.07 "HgN/A
9:30 AM72 °FPassing clouds.6 mph53%30.07 "HgN/A
9:00 AM70 °FPassing clouds.6 mph60%30.07 "HgN/A
8:30 AM68 °FPassing clouds.3 mph69%30.07 "HgN/A
8:00 AM66 °FSunny.3 mph73%30.07 "Hg10 mi
7:30 AM64 °FSunny.6 mph78%30.07 "Hg10 mi
7:00 AM63 °FFog.3 mph83%30.07 "Hg2 mi
6:30 AM61 °FFog.3 mph88%30.04 "Hg2 mi
6:00 AM61 °FFog.3 mph88%30.04 "Hg2 mi
5:30 AM61 °FFog.3 mph88%30.04 "Hg2 mi
5:00 AM63 °FFog.3 mph83%30.04 "Hg2 mi
4:30 AM63 °FFog.6 mph83%30.04 "Hg2 mi
4:00 AM63 °FFog.3 mph83%30.04 "Hg2 mi
3:30 AM64 °FFog.3 mph83%30.01 "Hg2 mi
3:00 AM64 °FMostly cloudy.6 mph78%30.01 "HgN/A
2:30 AM64 °FMostly cloudy.6 mph83%30.01 "HgN/A
2:00 AM64 °FMostly cloudy.6 mph83%30.01 "HgN/A
1:30 AM63 °FMostly cloudy.6 mph83%30.01 "HgN/A
1:00 AM64 °FMostly cloudy.6 mph78%30.01 "HgN/A
12:30 AM64 °FMostly cloudy.6 mph83%30.01 "HgN/A
12:00 AM64 °FMostly cloudy.6 mph83%30.01 "HgN/A
11:30 PM
Jul 31
66 °FMostly cloudy.6 mph73%30.01 "HgN/A
11:00 PM68 °FMostly cloudy.6 mph73%30.01 "HgN/A
10:30 PM68 °FMostly cloudy.6 mph69%30.01 "HgN/A
10:00 PM68 °FOvercast.3 mph69%30.01 "HgN/A
9:30 PM68 °FCloudy.3 mph69%30.01 "HgN/A
9:00 PM70 °FCloudy.3 mph64%30.01 "HgN/A
8:30 PM72 °FCloudy.6 mph57%29.98 "HgN/A
8:00 PM73 °FCloudy.3 mph53%29.98 "HgN/A
7:30 PM72 °FCloudy.6 mph61%29.98 "HgN/A
7:00 PM72 °FCloudy.3 mph61%29.98 "HgN/A
6:30 PM72 °FCloudy.1 mph61%29.98 "HgN/A
6:00 PM72 °FCloudy.8 mph61%29.98 "HgN/A
5:30 PM72 °FCloudy.13 mph61%29.98 "HgN/A
5:00 PM72 °FMore clouds than sun.10 mph61%29.98 "HgN/A
4:30 PM70 °FThunderstorms. More clouds than sun.15 mph69%30.01 "Hg3 mi
4:00 PM86 °FBroken clouds.10 mph29%29.95 "HgN/A
3:30 PM86 °FBroken clouds.10 mph31%29.95 "HgN/A
3:00 PM86 °FBroken clouds.13 mph31%29.95 "HgN/A
Weather by CustomWeather, © 2014

See weather overviewHow to use our weather pages